Wind_Speed
10 12 12 12 13 13 13 12 12 12 13 14 14 15 14 13 13 13 13 13 12 11 10 10 9 11 12 12 12 13 14 11 10 10 10 12 13 14 15 16 16 16 16 17 17 17 16 16 15 15 16 17 17 17 18 17 17 17 17 17 16 17 17 18 18 17 17 18 17 17 16 16 16 16 15 15 15 13 12 13 12 13 14 14 13
15 15 14 13 14 13 13 12 13 12 13 14 14 15 13 12 12 12 13 13 11 11 10 10 9 11 13 12 12 13 13 11 10 12 12 14 14 14 14 15 17 16 17 17 17 17 16 16 15 15 15 16 16 16 17 16 17 17 17 17 17 17 17 18 19 18 17 18 18 17 17 16 15 14 14 13 14 13 12 13 13 13 14 13 12
18 16 15 15 15 13 13 14 14 12 13 13 14 14 13 12 11 12 14 13 11 11 10 10 11 12 13 12 13 13 12 11 12 12 13 14 13 15 14 15 17 16 17 16 17 17 17 16 15 15 15 15 16 16 16 16 16 16 16 17 18 18 16 18 19 18 17 17 18 18 17 16 15 14 14 14 14 14 13 13 13 14 14 13 12
19 16 15 15 14 14 14 14 14 12 12 12 13 12 12 12 11 13 14 13 11 11 10 10 11 11 11 11 12 12 11 12 13 12 12 14 13 15 15 15 17 16 16 17 17 17 17 16 16 16 15 15 16 16 16 15 15 15 16 17 17 16 15 15 16 15 14 14 15 15 15 16 16 15 14 15 15 15 14 14 14 14 13 12 12
18 15 15 15 14 15 14 14 14 13 12 12 12 11 12 11 11 13 13 13 12 12 12 12 11 11 11 11 11 11 11 13 14 13 13 14 14 14 15 16 16 16 16 17 17 17 17 17 17 16 15 15 16 16 15 15 15 15 16 17 16 14 14 13 13 12 10 12 12 13 14 15 16 15 14 14 14 15 15 15 14 14 12 12 12
17 15 14 15 14 15 15 14 14 13 12 12 12 11 12 11 11 12 12 12 12 13 14 13 12 11 11 11 10 11 12 13 14 15 14 14 15 15 15 15 15 15 16 17 16 16 17 17 17 16 16 16 15 15 15 15 16 17 16 16 14 13 15 13 12 11 10 11 11 12 13 14 15 15 14 13 14 14 14 13 14 13 13 12 11
18 16 14 15 14 14 15 14 14 13 12 12 11 11 11 11 11 12 11 13 13 13 14 15 14 11 11 11 11 11 13 13 14 15 14 14 15 16 15 15 14 15 16 16 16 16 16 17 17 17 16 16 15 15 15 15 15 16 15 15 13 14 14 12 11 9 9 10 9 11 12 13 14 14 13 12 12 12 12 12 12 13 12 11 11
18 15 14 15 13 13 14 14 13 13 12 11 12 12 11 11 11 11 12 13 13 13 14 16 16 14 13 13 12 10 12 14 15 15 15 15 16 16 16 15 14 14 15 15 15 15 15 16 16 16 16 16 16 15 14 14 14 14 14 14 13 13 11 11 10 8 10 10 9 11 12 13 14 14 13 12 11 11 10 10 11 11 11 10 10
20 15 14 14 13 13 13 13 13 13 11 10 11 12 11 10 10 11 13 14 14 13 14 15 15 14 13 14 14 11 11 14 15 15 16 16 15 15 16 15 14 14 14 14 14 14 15 15 15 15 15 15 15 15 14 13 13 13 13 13 12 11 10 12 11 8 10 10 10 11 12 12 13 14 13 11 11 10 10 9 10 10 9 9 10
21 18 15 15 14 13 13 13 12 13 12 10 11 11 11 10 10 11 12 13 15 15 15 15 15 15 13 13 15 13 11 12 14 14 15 15 14 13 14 14 13 14 13 13 13 14 15 15 14 14 14 15 15 14 13 13 12 12 13 12 11 11 11 11 9 7 10 11 11 12 12 13 14 14 13 12 11 10 10 9 9 9 9 8 8
16 18 18 17 16 14 13 12 12 13 11 11 11 11 11 10 10 12 13 14 15 16 16 15 14 14 14 13 14 13 12 13 13 14 15 14 14 13 13 13 13 13 13 13 13 13 14 14 14 13 13 15 15 14 13 13 12 12 11 11 11 11 10 8 6 7 11 12 12 13 14 15 15 15 13 12 11 11 10 9 9 9 8 7 7
13 17 17 16 15 13 13 12 12 12 11 11 11 11 11 10 10 11 12 14 15 15 15 14 14 14 14 13 13 12 11 13 13 13 14 13 13 13 12 13 13 13 13 13 13 13 13 13 13 13 13 14 15 15 14 13 12 12 11 11 12 11 9 7 6 8 11 12 13 13 14 15 15 14 13 11 10 10 9 9 8 8 7 6 6
13 15 16 15 13 13 12 12 12 11 11 11 11 11 10 10 10 10 11 11 13 14 13 13 14 14 13 12 13 12 11 13 13 13 15 15 13 13 13 12 12 13 12 12 12 12 12 13 13 13 13 14 15 14 14 14 13 12 11 12 13 13 12 10 8 10 10 11 12 13 13 14 14 13 12 11 10 9 9 8 7 6 6 5 4
13 15 16 15 13 13 12 11 11 11 11 10 11 11 10 10 9 10 10 10 10 12 14 14 13 13 12 10 12 13 12 13 14 15 16 16 15 15 14 13 12 12 12 11 11 11 11 12 13 13 13 14 14 14 13 13 13 12 12 13 13 13 11 9 8 9 10 10 11 12 13 13 12 12 11 10 10 9 9 8 7 6 5 4 3
14 14 15 14 13 12 11 11 11 11 11 10 10 11 10 9 9 9 9 10 10 11 13 14 14 12 11 12 12 13 12 13 14 16 16 15 15 15 15 14 13 12 12 11 10 10 11 11 11 12 13 13 13 14 12 12 13 13 12 12 11 10 7 7 7 9 9 10 11 11 12 12 12 11 11 9 9 8 8 7 7 6 5 4 3
13 14 13 13 13 12 11 11 11 11 10 10 9 10 9 8 8 9 9 9 9 9 11 13 14 12 11 13 13 12 12 13 14 15 15 15 15 16 15 14 12 12 12 11 10 10 11 11 10 11 12 12 13 12 10 10 12 13 12 12 12 11 10 10 8 8 9 9 9 10 11 11 10 11 10 9 8 7 7 7 5 5 5 4 3
13 13 13 13 13 12 11 11 10 9 8 8 8 8 8 8 8 8 9 10 9 9 10 11 13 12 11 12 12 13 13 13 14 14 14 14 14 15 16 15 12 11 12 11 10 10 11 10 10 11 11 11 11 10 9 10 10 11 13 13 13 12 10 9 8 8 9 8 8 10 10 9 10 11 9 8 7 7 6 6 5 4 3 2 2
11 12 13 11 11 11 11 11 10 8 7 7 7 7 7 9 9 9 9 10 11 11 11 11 12 12 12 12 13 13 13 13 13 14 13 14 14 14 15 15 12 10 11 10 9 9 9 9 9 9 10 10 10 9 9 9 8 9 11 13 13 11 9 8 8 9 8 8 8 9 8 6 9 10 8 7 6 6 6 5 4 3 1 0 0
10 10 13 11 10 11 10 10 9 8 7 6 7 7 9 10 10 10 11 10 11 11 11 11 11 12 12 13 14 13 13 13 13 14 13 13 13 13 14 14 13 11 10 9 9 8 8 8 8 8 9 9 10 9 9 8 7 7 9 12 12 11 10 8 8 8 8 7 9 8 5 4 9 9 7 6 6 5 5 4 3 2 2 1 1
9 9 10 10 10 10 10 9 9 7 6 6 6 7 9 10 11 12 12 11 10 10 11 10 11 12 12 15 15 14 14 13 12 14 13 13 13 13 14 13 12 10 8 9 9 8 8 7 7 8 8 9 9 9 8 8 7 7 7 9 9 8 7 6 7 7 7 6 8 6 2 4 8 8 6 5 5 5 4 4 3 3 3 3 2
8 8 8 8 9 9 9 10 9 9 7 5 5 7 7 9 11 12 12 11 10 10 11 11 11 11 12 15 14 14 14 13 13 14 13 12 13 13 13 12 10 8 7 8 8 8 7 7 7 8 8 8 8 8 8 9 8 8 7 6 6 5 4 5 5 6 7 7 7 3 1 4 7 7 6 6 6 5 4 4 3 1 1 2 1
8 8 8 8 9 9 9 9 9 10 8 6 5 6 7 8 9 10 11 12 11 11 11 12 13 12 12 13 11 11 14 13 13 14 13 12 13 13 12 11 8 7 7 8 8 7 7 7 7 8 7 7 8 6 6 8 8 8 7 6 5 3 4 4 5 5 6 7 6 2 1 3 6 8 7 7 6 5 4 3 3 2 1 1 2
9 8 9 9 8 9 9 9 10 10 9 7 6 8 9 9 9 9 10 11 12 14 13 13 14 15 14 14 11 10 13 15 14 13 13 12 12 13 12 10 8 8 9 9 9 8 7 7 7 7 7 6 5 6 5 5 4 4 4 5 4 4 5 5 5 5 5 7 5 2 2 3 6 8 8 7 6 5 3 2 3 2 2 2 3
8 8 10 10 8 9 8 8 9 9 9 7 6 8 10 10 10 9 9 10 12 14 14 14 16 16 15 14 13 11 12 14 15 14 13 13 12 12 11 10 9 10 11 10 9 8 8 8 8 8 7 5 4 7 6 7 6 3 3 5 5 4 5 4 5 5 6 7 3 2 3 3 5 8 8 7 6 6 4 3 3 2 3 4 5
8 8 10 10 9 9 9 9 9 9 8 8 6 7 8 8 8 8 7 8 9 12 13 12 15 17 15 14 13 11 12 13 14 13 13 13 12 11 11 10 9 9 10 9 7 8 8 7 7 6 7 7 5 4 4 4 4 3 3 4 4 3 5 5 5 5 6 6 3 2 4 4 4 7 8 7 6 6 4 3 3 3 4 5 5
8 9 10 11 10 9 9 9 9 9 8 9 7 6 7 7 8 8 8 9 9 12 13 11 15 18 15 14 12 11 12 12 12 11 11 12 11 10 11 10 9 8 9 8 7 7 7 7 6 6 8 7 4 3 3 2 2 4 5 4 3 4 4 5 5 5 7 6 3 2 4 4 5 7 9 8 7 7 5 4 4 4 5 5 5
8 9 10 10 11 10 10 9 9 9 8 9 8 8 8 7 8 9 9 11 12 14 15 14 16 18 16 15 13 12 12 12 12 12 12 11 10 9 9 9 9 8 7 7 7 7 7 6 5 4 4 4 5 4 4 3 2 3 6 4 3 4 4 5 5 5 7 6 3 3 5 5 5 6 8 9 8 8 7 5 5 5 5 5 5
9 9 10 10 11 11 11 10 10 10 9 9 8 8 8 7 8 8 8 10 12 14 16 15 16 18 17 15 14 13 12 11 11 12 11 10 9 9 9 9 8 8 7 7 6 6 6 5 4 3 2 2 3 3 4 5 3 3 7 6 4 4 3 5 6 5 7 6 2 2 4 5 5 6 6 7 8 8 7 6 5 5 5 5 5
10 10 10 10 11 12 11 11 11 10 10 9 8 8 8 9 9 9 9 9 11 14 15 14 14 16 16 15 16 14 12 12 11 10 10 9 9 9 9 9 8 7 7 6 6 5 5 5 4 4 2 1 2 3 2 4 5 4 5 6 7 5 4 5 5 5 6 7 4 2 3 5 5 6 6 6 7 7 7 7 7 6 6 6 5
11 10 10 10 10 11 11 10 10 9 9 9 8 8 9 9 9 10 11 11 11 15 16 15 14 15 14 14 16 16 14 13 12 10 9 9 9 9 9 8 8 7 6 6 5 5 5 4 4 3 2 0 2 3 2 3 6 5 4 6 7 6 5 5 6 6 6 8 7 2 2 4 5 6 6 6 6 6 6 6 7 7 7 6 5
11 11 10 9 10 11 11 11 10 9 9 9 9 9 9 9 9 10 12 12 12 14 17 18 19 16 13 12 12 13 13 12 11 10 9 9 9 9 9 8 7 6 6 5 5 4 3 3 2 2 2 1 1 3 2 3 6 6 6 6 6 6 6 7 7 7 6 7 7 4 2 3 5 5 6 7 6 6 6 6 7 7 7 6 5
10 10 10 10 10 11 12 11 11 10 9 10 9 9 9 9 10 10 10 11 11 12 13 16 19 17 14 12 8 6 9 10 10 10 10 10 9 9 8 7 6 6 5 5 4 4 3 3 3 2 1 2 2 2 3 4 4 5 6 6 6 6 5 5 7 8 7 6 7 6 4 2 4 5 5 5 6 6 6 6 6 6 6 6 5
10 10 10 10 11 12 12 11 11 10 10 10 10 9 9 9 9 9 10 11 10 10 11 11 14 15 13 10 7 5 7 9 9 9 9 10 9 8 7 6 6 5 4 4 4 4 4 4 4 3 1 2 3 2 3 5 4 4 7 7 6 6 5 5 7 7 7 7 7 7 6 4 3 3 3 3 4 4 5 5 6 6 6 5 5
9 10 10 11 11 11 11 11 11 10 10 10 10 9 9 9 9 10 11 11 10 10 11 11 11 12 11 9 8 7 7 9 9 9 9 9 8 7 6 6 5 5 5 4 4 4 4 4 3 3 1 1 2 1 1 5 4 3 5 6 6 5 5 5 6 6 5 6 6 6 6 5 3 2 2 2 1 2 3 4 5 5 5 5 4
10 10 10 11 10 11 11 11 12 11 10 10 10 9 9 9 10 11 10 10 10 10 11 12 12 11 10 9 9 8 8 8 9 7 7 9 8 7 6 6 5 4 5 4 3 4 3 2 2 1 0 0 2 3 2 3 4 4 4 5 6 4 5 5 4 6 6 6 5 4 4 3 3 3 1 2 4 4 3 4 4 5 5 4 4
10 11 11 10 11 11 11 12 12 11 11 10 10 9 9 9 10 10 10 9 10 10 11 12 12 11 11 10 9 8 8 8 8 6 6 7 7 8 6 5 5 3 4 4 3 3 2 1 1 1 1 2 1 4 4 2 4 5 4 6 5 3 5 4 3 6 5 5 6 5 5 3 1 2 3 2 5 7 6 5 5 5 5 5 4
10 11 11 10 11 11 11 13 13 12 12 11 10 9 8 9 9 10 9 9 9 10 11 11 11 12 11 11 10 9 8 8 8 5 5 6 6 7 7 5 4 3 4 4 3 4 3 1 0 2 2 2 2 3 5 3 4 6 6 7 4 2 3 1 2 5 4 5 6 7 8 6 4 4 5 5 2 6 7 7 7 6 6 6 6
11 12 12 10 11 11 10 12 13 12 12 11 10 9 9 9 9 10 9 8 9 9 10 10 11 11 11 11 11 9 9 8 8 5 3 4 4 4 6 5 3 2 3 3 3 4 4 2 1 1 1 3 3 1 2 2 2 4 6 6 4 2 3 2 2 4 5 5 5 7 8 7 7 6 4 6 5 5 5 6 8 9 9 8 9
12 12 12 11 10 10 11 12 12 13 13 11 10 10 10 9 9 9 8 8 8 9 10 10 10 10 11 12 11 10 9 9 8 5 2 4 4 3 4 3 2 2 2 3 4 4 3 1 1 1 1 2 2 1 1 1 1 2 3 5 5 3 3 4 3 4 5 6 6 7 8 7 8 8 6 6 5 6 7 6 7 8 10 10 11
13 13 13 11 11 11 11 12 12 13 13 12 11 11 10 9 10 10 9 8 8 9 9 9 10 10 11 12 11 10 10 9 8 6 3 3 4 4 4 3 2 2 2 3 3 4 3 1 1 1 2 2 2 1 2 1 2 2 1 2 5 4 3 3 6 6 5 6 7 7 8 8 8 9 9 9 8 7 9 9 7 7 9 9 9
14 14 14 13 12 12 12 12 12 13 13 13 12 11 11 10 10 11 10 9 9 9 9 9 9 10 12 12 11 10 10 9 8 6 4 3 3 3 3 2 2 2 1 1 1 2 2 2 1 2 3 2 1 1 2 0 2 4 2 4 5 5 5 4 6 7 6 7 8 7 7 7 9 10 9 9 7 6 8 9 6 5 8 7 7
15 15 14 14 14 13 13 13 13 13 13 13 12 11 11 10 10 10 10 10 10 9 9 9 9 11 12 11 10 10 10 9 8 6 5 4 3 3 3 2 2 2 1 1 1 1 2 2 2 3 3 2 1 1 1 0 4 4 3 3 5 5 5 5 6 6 7 7 8 8 7 7 9 9 9 9 7 7 7 6 4 5 9 7 8
15 15 15 15 15 13 14 13 13 13 13 12 12 11 11 10 9 9 9 10 10 9 8 9 9 11 12 11 10 10 10 9 8 6 5 4 3 2 3 3 2 2 2 1 2 2 2 3 3 2 2 4 3 2 1 1 4 1 3 3 4 4 3 5 7 5 6 6 5 8 8 8 9 8 8 9 8 9 8 6 6 8 9 8 9
15 15 16 16 15 14 15 14 13 13 12 13 12 11 11 9 7 6 7 8 9 8 8 8 9 10 12 11 9 10 9 8 7 6 5 4 3 2 3 3 2 2 2 2 2 3 4 3 2 1 2 6 3 2 1 0 3 3 1 2 3 3 2 4 7 6 6 6 6 7 6 6 8 8 7 7 8 9 7 5 7 8 7 7 8
15 15 16 16 15 16 16 15 14 13 12 13 12 11 11 9 7 6 6 7 8 8 8 9 9 11 11 11 10 10 9 8 7 6 5 4 4 3 2 2 3 2 2 2 3 3 3 3 2 2 1 4 4 3 3 1 2 2 2 1 2 2 0 3 4 3 5 7 4 4 4 6 8 6 6 8 7 5 3 3 6 7 4 3 3
16 16 17 16 16 16 17 16 15 13 13 14 13 12 12 11 10 10 9 9 9 8 9 10 10 11 11 11 10 10 9 7 7 6 5 5 4 4 3 3 2 3 3 2 2 3 3 4 3 2 1 2 4 4 5 3 2 1 2 2 2 3 1 3 5 0 4 10 8 8 8 10 13 9 6 8 6 3 1 3 6 4 3 1 2
16 16 16 16 16 17 18 17 16 14 14 14 14 12 12 12 11 11 10 9 9 8 8 8 9 9 9 10 10 10 9 8 7 6 5 5 5 4 3 3 2 3 3 2 3 4 4 3 2 1 1 2 3 4 5 6 3 2 3 1 2 5 4 4 5 1 1 6 10 9 8 9 13 17 14 9 7 4 2 4 5 1 1 4 5
17 16 16 16 16 18 19 17 16 16 15 15 15 13 12 12 12 11 10 9 9 9 8 8 8 8 8 9 9 10 9 8 7 7 6 5 5 5 4 3 3 3 3 4 4 3 2 2 2 1 1 1 3 3 5 6 6 4 2 2 3 5 6 6 8 7 1 0 4 4 5 8 10 15 17 10 7 5 4 3 3 3 2 5 4
17 16 16 17 17 18 19 18 17 16 16 16 16 14 13 12 12 11 10 10 10 9 9 8 8 8 8 8 8 9 9 9 8 7 7 7 6 5 4 4 4 4 4 4 3 3 2 2 2 3 2 3 3 3 4 5 7 7 4 2 4 5 5 4 6 8 6 2 2 1 3 8 10 11 15 12 8 9 7 4 3 3 3 5 4
17 17 16 17 17 18 18 19 18 17 17 18 17 16 14 13 12 12 11 11 10 9 10 9 8 8 8 8 8 8 9 10 10 9 8 8 7 6 6 5 5 4 4 3 3 3 3 3 4 3 3 3 3 4 5 5 6 7 6 3 3 6 6 4 4 2 2 0 3 3 2 3 5 8 13 14 11 11 8 5 5 4 2 2 5
17 17 17 17 17 18 19 19 18 18 17 19 19 17 16 14 13 13 12 12 11 10 11 11 10 9 9 10 9 9 9 9 10 10 10 9 9 8 7 6 5 4 4 4 4 4 5 5 4 4 3 4 4 5 6 7 6 7 8 7 6 8 7 5 6 5 4 4 2 2 2 2 9 12 11 12 10 9 9 2 2 4 3 1 5
Wind_Direction
130 130 135 136 125 121 121 122 121 115 114 114 115 115 115 120 121 126 127 123 126 120 116 117 121 119 119 121 113 114 117 130 145 131 123 115 112 110 108 110 110 111 109 107 105 102 102 101 100 99 96 96 97 98 96 94 95 94 92 92 91 92 93 94 95 96 96 95 93 91 88 86 86 85 83 82 81 83 84 82 83 87 90 89 88
141 143 143 140 132 128 128 126 122 118 118 117 117 119 119 124 125 125 124 123 126 124 124 124 126 127 125 125 122 122 127 142 139 125 122 116 113 111 109 111 110 109 107 104 103 102 103 101 99 96 94 96 98 97 96 95 95 95 95 96 96 94 93 94 95 95 95 96 96 94 91 89 86 85 82 80 85 92 97 97 91 87 89 90 89
139 144 144 142 137 135 134 128 123 124 123 119 120 124 124 127 129 126 125 128 129 128 131 130 130 130 128 133 131 124 129 135 125 122 121 115 115 113 113 112 109 107 104 103 102 102 103 102 100 98 96 96 96 94 94 96 97 99 99 99 98 97 95 94 93 92 93 93 94 94 92 90 87 84 81 80 85 94 97 98 95 88 90 94 93
133 138 139 138 134 132 131 128 126 127 124 120 121 125 127 128 132 130 130 132 132 130 127 126 129 128 128 131 120 117 129 128 120 121 117 114 115 113 114 111 108 106 104 103 103 103 102 101 100 99 97 96 95 94 94 95 99 102 103 101 100 99 97 95 93 91 89 87 90 94 94 91 89 86 84 83 84 88 89 89 90 89 92 95 96
131 136 138 133 130 130 129 128 127 126 123 126 128 125 126 127 129 131 130 130 131 128 124 122 123 121 119 114 111 123 133 128 129 127 120 119 117 115 115 111 108 106 104 103 105 106 104 101 100 98 96 96 94 94 95 97 100 101 103 101 100 99 96 94 93 95 93 92 94 97 97 95 91 88 86 85 84 85 86 86 87 87 89 91 93
134 136 137 130 129 131 131 131 127 125 124 130 133 126 126 129 131 133 131 130 132 131 128 122 114 111 114 117 127 138 133 131 133 126 123 123 119 117 113 110 109 107 106 105 104 105 104 102 100 99 97 96 93 94 95 96 99 101 101 99 100 100 96 93 94 104 109 101 97 95 97 96 94 90 86 85 85 85 85 86 87 88 88 88 89
133 134 134 129 127 129 131 131 127 128 129 130 130 128 128 129 132 135 134 134 137 138 134 125 121 124 131 135 140 138 129 131 131 123 125 122 117 116 112 109 109 109 108 106 104 103 104 102 101 100 99 96 95 95 95 94 95 97 97 96 100 102 101 96 96 109 106 95 96 98 99 98 95 92 89 86 85 86 86 87 88 88 88 88 89
131 132 131 126 124 130 129 129 129 129 131 133 132 133 132 132 137 138 138 139 142 143 137 130 133 143 147 141 134 130 126 131 132 126 126 119 116 117 114 111 110 110 107 106 105 105 105 103 102 102 101 100 98 96 96 95 92 93 94 96 100 104 105 99 98 100 93 94 98 97 99 99 97 94 90 87 86 85 85 88 90 89 87 88 87
128 129 125 122 127 136 131 131 134 131 131 136 135 132 134 140 145 143 143 144 146 145 140 139 143 147 146 135 125 123 128 135 134 128 123 115 115 118 114 112 112 110 106 106 105 107 106 104 103 102 103 101 100 98 97 97 96 95 96 100 104 106 103 98 97 93 93 97 93 91 97 99 96 93 91 88 87 84 83 87 89 90 91 93 92
127 129 125 126 136 140 135 135 136 133 134 138 137 133 136 145 146 144 148 147 149 149 149 150 150 147 139 132 127 129 137 137 132 127 121 115 116 115 113 114 112 110 107 106 105 106 106 105 105 104 103 102 101 100 100 100 100 100 101 106 107 105 102 101 103 102 103 101 96 95 97 96 93 91 90 87 85 84 85 88 86 88 92 94 94
126 126 126 132 140 140 135 136 136 136 139 143 140 138 141 144 141 145 153 150 153 158 156 151 150 145 134 128 127 132 140 135 127 124 120 119 120 116 115 115 112 108 106 104 102 102 104 107 109 108 108 105 104 101 98 99 102 105 108 112 110 108 104 103 109 103 98 96 97 98 96 94 92 91 89 86 84 83 84 85 84 87 90 91 90
124 120 126 134 138 138 134 133 135 137 143 144 139 143 144 143 143 144 152 157 162 162 156 151 148 143 135 130 130 134 137 130 123 119 118 116 116 116 114 113 111 108 105 103 101 99 102 107 109 110 110 108 107 101 96 95 100 107 112 115 114 108 93 86 101 99 92 92 93 93 92 91 91 92 90 88 88 87 86 84 83 87 86 87 90
124 121 127 131 132 133 130 127 130 135 140 142 143 149 144 145 154 151 152 161 164 161 154 149 148 144 138 135 133 135 133 125 122 118 117 118 120 120 116 112 110 108 106 103 102 102 103 107 110 111 110 109 107 103 98 93 95 103 112 115 113 104 87 81 93 95 88 89 91 89 87 87 90 90 89 89 89 87 86 87 87 91 91 87 86
126 123 129 132 133 132 129 127 128 131 134 138 145 148 146 152 162 159 156 157 159 156 151 144 146 146 139 132 128 134 135 128 127 123 121 125 130 128 122 116 111 108 104 103 103 106 107 108 112 112 109 107 106 105 100 93 91 97 111 116 115 111 98 87 92 93 88 87 90 91 87 87 90 89 90 89 86 83 82 83 82 82 89 96 90
127 126 129 132 133 134 134 134 133 132 133 138 148 150 153 162 164 164 157 155 158 153 151 147 147 149 144 135 130 135 134 129 127 125 125 128 131 127 120 117 115 113 109 105 102 105 108 108 110 110 107 106 108 106 102 96 91 91 106 120 117 111 104 95 95 95 92 87 86 89 90 92 93 93 96 95 92 90 85 82 78 72 73 86 98
127 129 129 130 132 134 133 135 136 134 138 141 148 153 154 166 167 164 159 156 154 149 154 153 150 155 153 138 133 135 130 128 125 124 128 129 130 124 120 118 117 116 110 104 100 105 108 108 109 108 106 108 108 106 103 98 92 86 94 114 114 106 106 105 102 100 95 89 87 90 93 92 95 99 98 99 98 95 96 93 90 80 69 68 80
129 130 128 131 131 134 134 134 133 130 142 146 147 154 158 169 170 165 161 159 154 156 162 157 153 157 156 140 134 135 129 129 126 126 130 130 130 124 120 117 115 111 106 106 108 109 110 111 110 109 110 110 106 104 103 96 93 88 90 108 113 110 109 103 97 97 96 93 92 95 95 95 103 107 103 102 103 100 100 97 96 93 82 72 68
132 131 129 135 135 135 138 135 131 129 145 155 157 169 175 173 171 167 167 167 162 162 164 161 160 158 156 143 134 134 130 129 129 129 131 131 129 122 118 117 117 109 105 108 109 111 114 117 113 110 111 109 105 103 100 95 92 86 92 108 109 108 105 96 101 104 108 104 100 102 98 105 116 116 115 111 109 108 103 97 98 97 103 148 351
137 136 132 136 137 133 135 134 131 133 151 163 167 180 184 176 171 171 174 176 173 167 161 161 162 157 152 139 135 138 131 129 130 130 129 128 126 119 118 118 117 111 112 116 117 118 118 121 118 115 113 109 107 103 98 92 87 81 98 112 109 104 94 91 108 113 115 108 106 110 99 119 128 126 129 125 119 120 117 122 140 158 184 231 287
142 141 133 132 132 130 132 135 136 141 165 174 164 175 182 178 175 175 178 180 181 173 159 160 160 156 148 138 143 145 132 129 132 130 128 127 125 121 119 117 116 118 127 132 133 131 128 131 127 121 119 116 110 102 95 85 78 80 98 117 112 91 75 88 103 104 112 109 109 117 116 134 135 133 138 140 138 141 144 159 174 200 223 232 251
147 142 131 127 127 130 132 134 140 147 169 183 163 173 176 176 180 179 181 178 179 169 155 160 158 153 142 134 145 143 130 133 134 130 131 130 128 125 121 119 119 130 143 143 141 140 144 144 135 130 126 121 111 102 92 80 77 86 95 107 107 81 72 104 99 100 114 116 119 122 149 143 144 142 140 138 135 139 143 150 161 191 228 221 235
150 142 133 133 132 133 135 135 142 147 163 181 170 172 169 167 179 179 175 172 170 156 145 155 154 147 138 134 145 141 132 136 130 129 134 135 132 128 125 125 124 133 141 144 145 147 153 150 144 136 131 126 118 122 107 89 82 84 94 91 95 97 94 103 97 108 116 121 139 177 185 145 143 144 141 140 135 134 137 141 156 165 185 249 284
151 148 139 140 139 138 142 141 144 149 158 180 176 163 168 173 175 175 173 168 164 153 149 158 155 150 146 144 150 142 139 138 132 137 141 136 133 129 125 122 118 118 121 127 135 143 149 148 146 134 133 135 140 177 179 152 126 85 110 115 112 117 108 110 108 115 114 119 148 231 191 152 145 146 145 150 146 144 158 170 172 191 234 265 279
154 149 140 140 143 142 145 144 146 153 155 178 186 165 173 181 171 171 175 167 160 152 151 161 156 154 150 147 150 144 144 143 140 146 142 135 133 129 124 120 115 111 108 110 119 131 137 140 141 139 147 164 191 202 184 178 188 185 182 146 125 128 117 115 114 119 118 125 162 234 183 159 151 155 153 157 156 154 175 183 182 218 237 259 270
156 142 138 141 144 145 145 145 147 153 155 167 184 171 167 171 164 169 172 159 151 139 141 153 147 148 149 145 151 147 147 147 142 143 141 141 142 139 136 135 130 118 113 120 128 128 137 153 158 172 198 202 205 197 166 169 178 166 161 123 117 137 122 114 119 123 123 138 190 220 182 164 155 163 160 159 160 164 179 179 190 240 246 250 252
153 141 138 141 146 148 146 148 148 151 156 157 168 172 159 162 164 166 164 149 142 134 138 148 138 142 147 144 152 150 147 146 142 144 146 148 150 150 146 144 145 137 130 145 156 146 156 179 193 213 219 200 169 145 161 162 160 143 121 115 125 123 118 123 127 126 128 152 205 207 181 166 158 167 166 165 165 171 182 186 198 230 249 246 240
150 144 140 144 149 148 146 146 146 149 155 153 159 166 163 170 166 165 163 148 143 138 141 152 148 148 149 145 151 153 147 144 144 146 143 148 154 151 146 144 146 147 144 150 161 164 169 179 187 205 211 179 148 156 167 145 178 157 121 128 145 128 131 130 129 131 136 159 206 190 180 170 163 169 172 172 171 174 184 197 201 213 232 238 243
147 148 144 150 153 146 143 141 143 149 151 154 160 161 163 166 162 167 161 144 144 141 141 154 159 155 152 148 150 154 154 150 148 142 139 149 152 145 145 145 144 143 145 151 158 164 167 167 168 170 173 165 147 153 161 149 164 145 125 132 127 125 144 131 133 141 141 157 184 181 182 175 167 169 170 170 171 175 180 191 197 205 218 225 236
148 149 147 150 149 143 143 143 145 149 148 153 158 157 160 160 161 164 157 152 151 145 142 147 155 156 155 156 156 160 161 153 150 144 143 148 144 143 144 141 140 141 147 153 154 164 171 167 167 159 149 187 142 138 171 163 150 125 129 137 129 131 141 131 135 142 138 149 159 184 191 178 173 166 161 160 163 169 173 180 188 196 207 216 228
149 149 147 146 143 140 141 142 142 144 145 149 152 152 157 158 160 159 157 162 157 149 148 146 150 154 154 158 165 171 162 149 150 149 145 141 140 143 139 137 140 142 148 151 154 171 175 159 162 154 142 239 137 152 209 160 141 126 129 133 128 128 130 128 130 139 143 149 160 189 194 176 174 164 157 154 153 159 168 177 185 190 199 210 220
148 149 144 144 144 140 139 139 140 141 143 145 148 149 152 152 153 155 156 158 152 151 154 152 152 150 151 158 175 182 162 148 150 146 143 140 141 140 136 141 139 140 148 153 163 170 172 149 136 113 126 184 135 164 198 145 134 132 129 125 126 126 136 148 139 140 147 146 156 169 169 168 171 166 157 154 155 159 166 174 184 190 197 205 212
150 148 141 148 147 140 138 140 141 142 144 144 147 148 149 148 148 152 149 147 150 150 147 149 149 147 154 163 173 173 146 143 145 143 144 140 141 138 136 143 138 144 152 157 164 162 164 139 133 138 163 220 156 169 197 144 131 137 129 122 125 123 131 149 136 133 140 141 155 163 166 164 156 160 159 157 158 162 171 179 186 192 198 205 211
149 143 145 154 146 138 138 139 140 143 145 142 144 147 146 146 146 144 140 142 148 143 136 137 141 144 154 161 157 134 126 137 140 142 144 139 140 138 138 143 140 151 152 154 164 167 173 158 163 170 185 243 165 181 196 134 121 133 130 125 122 123 130 132 122 129 139 142 153 158 162 163 140 133 144 157 165 170 180 188 196 201 207 211 215
144 144 154 154 142 139 142 142 143 144 142 137 140 144 144 145 143 139 139 142 141 136 134 135 138 145 150 150 144 134 132 137 140 144 143 137 139 141 143 144 148 160 158 168 177 167 168 164 167 154 153 240 156 161 160 128 118 105 115 119 122 137 140 121 114 127 134 135 140 144 153 163 166 143 87 83 109 205 211 212 215 214 219 221 223
146 152 154 149 142 143 146 144 145 144 137 134 138 142 143 144 143 141 142 141 140 137 137 139 142 145 146 145 143 139 138 139 142 145 143 142 142 145 146 145 157 167 163 181 193 167 156 147 136 125 111 71 142 149 115 112 120 112 106 105 112 123 113 106 120 131 129 127 126 121 121 128 163 178 122 17 356 327 273 249 241 233 234 232 237
153 153 149 151 146 143 148 146 147 145 137 134 135 139 140 141 141 142 143 142 142 141 141 143 145 146 146 146 145 143 142 141 143 141 144 151 148 148 143 140 160 169 162 176 198 170 138 57 42 49 44 20 227 165 132 130 130 129 139 122 118 119 115 135 153 129 124 123 126 125 121 127 166 133 109 67 339 324 310 286 264 254 253 256 265
155 152 151 157 147 145 154 148 146 144 138 135 134 136 139 141 143 142 145 147 145 142 144 146 147 148 147 146 147 146 145 143 144 145 152 155 150 149 143 140 161 167 164 183 197 161 135 200 135 57 24 337 293 162 141 174 158 142 144 127 115 108 118 139 105 112 120 125 146 156 146 160 164 110 113 139 212 287 304 307 295 290 282 279 290
155 156 156 160 149 148 153 144 146 145 139 138 136 138 141 144 146 144 147 150 147 144 144 145 147 148 144 145 148 148 148 147 147 146 145 146 140 130 128 139 158 156 174 193 188 147 146 200 159 73 340 329 332 74 140 207 166 141 137 128 125 141 141 115 96 137 152 152 178 181 160 168 169 148 169 174 183 238 262 289 296 299 300 295 299
159 158 156 159 152 149 146 142 149 147 141 141 140 140 144 151 149 145 151 155 150 146 146 148 149 147 144 145 148 150 152 152 153 151 140 147 148 123 123 150 164 157 191 194 178 149 146 191 74 65 300 301 304 17 116 253 256 121 114 129 140 182 166 136 184 195 172 171 184 193 175 173 181 171 182 192 199 215 210 238 273 283 298 304 298
158 156 157 159 156 153 147 148 154 150 145 147 149 149 151 156 152 148 155 157 151 149 152 153 150 146 145 148 151 154 155 156 160 163 166 158 154 144 142 163 160 158 198 194 175 150 152 192 14 293 298 267 238 198 156 251 272 117 80 175 150 183 194 167 211 204 192 188 180 207 197 180 190 181 181 198 209 209 200 214 243 262 279 298 299
156 156 163 163 161 160 154 155 158 155 154 155 159 160 157 158 157 156 159 156 154 156 158 157 152 145 146 152 155 156 157 161 167 169 171 163 155 149 149 165 161 153 172 183 132 121 165 224 263 256 273 259 228 198 146 296 254 160 170 230 174 183 198 197 231 211 208 203 181 209 215 199 201 189 195 205 206 225 223 215 222 259 263 279 299
159 163 168 165 165 166 160 161 161 160 163 162 164 163 160 162 161 162 159 155 157 162 163 158 152 145 148 156 158 157 160 164 170 171 168 173 177 165 158 168 161 152 159 164 151 141 206 236 247 260 275 259 232 20 82 315 259 191 170 236 190 182 194 206 236 221 218 217 194 203 210 223 216 196 204 201 199 238 241 217 206 244 250 257 282
164 168 169 166 168 168 164 167 165 165 168 165 166 165 163 166 163 162 159 156 161 163 159 155 153 151 153 159 158 159 164 167 172 175 173 179 186 173 170 169 157 166 169 170 177 181 220 237 250 270 310 282 230 135 122 282 302 233 156 242 210 174 198 234 237 228 228 228 222 220 206 226 227 201 211 203 202 230 222 206 210 231 248 258 278
168 170 170 170 171 169 168 171 168 168 170 167 169 165 162 165 158 156 155 153 157 155 153 155 155 155 158 162 161 162 169 172 173 177 176 175 181 183 177 169 167 180 170 176 193 195 211 227 257 258 312 293 263 124 130 190 343 344 156 254 241 198 203 232 222 211 231 228 228 238 218 241 239 201 221 234 215 219 210 197 216 231 255 272 285
172 173 173 172 172 171 170 172 171 172 170 168 170 165 161 164 158 153 150 150 157 160 164 165 159 159 165 166 165 167 173 173 172 178 179 171 181 191 183 180 183 193 185 190 202 198 206 206 226 248 291 329 344 2 313 204 90 21 334 286 266 258 315 301 260 207 255 262 260 303 324 307 277 217 221 259 252 236 223 209 228 229 234 271 284
174 175 174 173 172 170 170 172 173 174 172 169 171 169 167 170 167 166 166 165 169 172 175 172 164 166 172 169 167 170 174 175 175 178 178 174 184 188 189 203 189 190 198 201 208 195 203 195 183 241 279 26 352 328 306 308 76 135 242 221 247 283 329 304 291 328 310 309 340 353 339 330 323 321 286 278 311 338 221 261 268 228 171 231 276
175 175 172 172 170 168 170 173 173 175 174 171 172 172 173 175 176 178 178 176 176 175 177 175 169 172 174 169 171 174 176 181 180 180 180 174 185 190 192 213 197 193 201 202 217 200 192 182 159 242 356 44 315 313 323 319 313 245 245 241 267 286 300 299 300 336 320 328 349 341 312 319 334 333 321 316 345 353 227 270 295 356 133 277 284
175 174 170 168 168 168 171 173 173 176 176 175 175 175 177 178 181 184 182 181 182 177 177 178 174 176 176 173 176 178 180 187 185 183 188 184 191 199 199 212 207 203 206 201 215 209 172 151 154 222 249 273 273 300 323 311 308 314 329 325 306 307 315 321 318 316 306 229 334 329 303 316 338 334 321 325 342 301 237 224 291 355 295 264 269
174 175 172 165 166 168 171 173 173 177 176 176 179 179 181 181 183 188 185 184 189 181 180 183 177 177 179 178 181 182 183 192 196 191 195 196 199 205 205 211 210 206 215 211 200 191 176 176 198 220 229 250 265 280 296 300 308 315 325 324 316 304 299 308 307 325 1 24 289 302 334 335 344 328 302 295 296 282 257 207 235 283 248 235 247
175 175 172 164 166 168 171 175 174 177 178 178 181 183 184 185 187 191 188 187 190 181 182 188 184 183 186 186 186 190 190 196 202 202 202 202 202 208 210 209 212 210 215 220 203 193 196 205 217 224 235 255 269 271 273 282 289 298 307 308 294 279 278 287 263 260 52 327 272 288 330 350 310 289 286 282 280 288 281 190 186 249 263 283 272
177 175 173 166 169 169 171 177 176 178 179 179 183 185 186 189 190 192 191 191 190 182 185 191 188 188 192 193 192 197 202 201 203 204 206 208 207 211 215 211 213 214 214 220 221 216 210 209 213 217 234 249 261 274 273 277 279 281 285 276 263 263 265 279 272 243 227 235 233 292 304 293 262 258 270 274 267 284 287 213 160 272 229 339 290
Height
810 810 812 810 811 810 811 812 813 814 814 815 815 816 816 818 818 818 819 820 821 821 822 822 822 823 823 823 824 825 826 830 831 830 829 829 828 827 827 828 828 829 828 828 828 828 829 829 830 830 830 830 830 830 830 831 830 831 831 832 832 832 832 832 832 833 833 832 832 833 833 834 834 834 834 834 834 834 835 835 835 835 835 835 835
812 813 813 811 812 812 813 813 815 815 815 816 816 817 817 819 819 820 820 821 822 822 823 823 824 825 825 825 827 828 828 831 831 830 829 829 829 828 829 829 829 830 829 829 830 830 831 830 831 831 831 832 832 832 832 832 832 832 832 833 833 834 834 834 834 834 834 834 834 834 835 835 835 836 836 836 836 836 836 836 837 837 836 836 837
812 814 814 813 814 814 815 814 815 815 816 817 817 818 818 820 820 821 821 822 823 823 824 823 825 825 826 827 828 828 829 831 831 830 830 830 830 830 830 830 830 830 830 831 831 831 832 832 832 832 833 833 833 833 833 834 833 833 833 834 834 835 836 835 835 836 836 836 836 836 836 837 837 837 837 837 837 837 837 837 838 838 838 838 838
811 813 814 814 815 815 815 815 816 816 817 818 818 819 819 820 820 821 822 823 824 824 824 824 825 825 827 828 828 828 830 831 831 831 831 832 832 832 831 831 831 831 832 832 832 833 833 833 834 834 834 834 834 834 834 835 834 835 835 835 835 836 837 836 836 837 838 838 837 838 838 838 838 839 839 839 839 839 839 839 839 839 839 839 839
811 812 813 814 815 816 816 816 817 818 818 819 819 820 821 821 821 822 822 824 824 824 824 825 826 826 828 828 828 829 831 831 830 831 832 833 834 834 833 832 833 833 833 834 834 834 835 835 835 835 836 835 835 836 836 836 836 836 836 836 837 838 838 837 838 839 840 840 839 839 840 840 840 840 840 840 841 840 840 840 840 840 840 840 841
811 812 814 815 815 816 816 817 817 819 819 820 820 821 822 822 822 823 823 824 824 824 825 825 825 827 828 829 830 831 832 831 832 833 833 833 834 834 834 834 835 835 835 835 835 836 836 836 837 837 837 837 837 837 837 837 837 837 837 838 838 839 838 839 840 840 841 840 840 840 841 841 841 841 842 842 842 842 842 842 842 842 842 842 842
811 813 814 814 815 816 817 817 818 819 820 821 822 823 823 823 823 823 824 824 824 825 825 825 826 828 830 831 832 833 833 833 833 834 834 834 834 834 834 836 836 836 836 836 837 837 838 838 838 839 839 839 839 839 838 839 839 839 839 839 839 839 839 840 841 841 841 841 841 841 842 842 842 842 843 843 843 843 843 843 843 843 843 843 843
812 813 814 814 815 816 817 818 819 820 821 822 823 824 825 825 824 824 824 824 825 826 826 827 827 829 831 832 833 834 833 834 834 834 835 834 834 834 834 836 837 838 838 838 838 839 839 839 840 841 841 841 841 841 840 840 840 840 839 839 840 840 841 842 842 843 841 841 842 842 843 843 844 843 844 844 844 844 844 844 844 844 844 844 844
812 813 813 814 815 817 818 818 820 821 822 823 824 825 825 825 825 824 825 825 826 827 828 828 829 830 831 832 833 835 835 834 834 835 835 834 835 835 835 837 838 839 839 839 840 840 841 841 842 842 842 842 842 843 842 842 842 841 841 841 842 842 843 843 843 844 843 843 843 843 844 844 845 844 845 845 845 845 845 846 845 845 845 845 845
811 813 814 815 817 818 819 820 821 822 824 825 826 826 826 826 825 825 825 826 826 827 828 829 830 831 832 834 834 835 836 835 835 835 835 836 837 837 837 838 840 840 840 840 841 842 842 842 843 843 844 843 844 844 844 844 844 843 843 843 844 844 844 844 844 845 845 844 844 844 845 845 845 845 846 846 846 846 846 846 846 846 846 846 846
810 814 816 817 819 820 820 822 822 824 825 826 827 827 827 826 826 825 826 826 827 827 828 830 832 832 833 834 835 836 837 836 836 836 837 837 838 839 840 840 841 841 841 841 842 842 843 844 844 844 845 844 845 845 845 845 845 845 844 845 845 845 845 844 845 846 846 845 845 845 845 845 846 846 846 847 847 847 847 847 847 847 846 846 846
810 813 817 818 819 820 821 823 824 825 826 826 827 827 827 827 826 826 826 827 827 828 830 832 833 833 834 834 835 837 838 838 837 838 838 839 840 841 841 841 841 842 842 842 842 843 843 844 845 845 846 845 846 846 846 846 846 846 845 846 846 846 846 845 846 846 846 845 846 846 846 847 846 847 847 848 848 848 848 848 848 847 847 847 847
810 813 817 818 819 821 822 823 824 825 826 827 827 827 827 827 827 826 827 828 829 830 831 833 834 834 834 836 836 838 840 839 839 839 838 839 841 842 842 842 842 843 843 843 843 844 844 845 846 846 846 846 846 846 847 847 847 847 846 847 847 847 846 846 847 847 847 846 847 847 847 848 848 848 848 849 849 849 848 848 848 848 848 848 848
810 813 816 818 819 821 822 824 825 826 827 827 827 828 828 828 827 827 827 828 829 830 832 833 834 834 835 837 838 841 843 840 840 839 839 839 840 841 842 842 843 843 844 845 845 845 846 846 847 847 847 847 847 847 848 848 848 847 847 847 847 847 846 847 848 847 847 847 848 848 848 849 849 848 849 849 850 849 849 849 848 848 848 848 848
811 813 816 818 819 821 822 824 825 826 827 827 828 828 828 828 827 827 828 828 829 830 832 834 834 835 835 837 840 844 845 842 840 840 840 839 840 841 842 842 842 843 844 845 846 847 847 847 847 847 848 848 847 848 848 849 848 848 848 848 847 847 846 847 849 848 848 849 849 849 849 849 849 849 850 850 850 850 850 849 849 849 848 848 848
812 814 816 818 820 821 822 824 825 826 827 828 828 828 828 827 828 828 828 828 829 831 832 834 835 836 836 839 842 845 846 843 841 840 840 840 841 842 843 843 843 843 844 845 847 848 848 848 848 848 848 848 848 848 849 849 848 848 848 848 848 847 847 847 849 849 849 849 849 850 850 850 849 850 850 850 851 850 850 850 850 849 849 849 849
812 814 816 818 820 822 823 824 825 826 826 827 827 828 827 827 828 828 828 829 830 832 833 835 836 837 838 841 843 845 845 843 841 841 841 841 842 843 844 844 844 844 844 846 848 848 849 849 849 849 849 849 849 849 849 849 849 849 849 849 849 848 847 847 849 849 850 850 850 851 850 850 850 850 851 851 851 851 851 850 850 850 849 849 849
813 815 817 819 820 822 823 824 825 826 826 826 827 827 827 827 828 829 829 829 831 832 833 835 837 838 840 842 843 844 845 843 842 842 842 842 842 844 844 844 845 845 845 847 848 849 850 850 850 850 850 849 849 849 849 849 849 849 849 850 849 849 848 847 849 850 850 850 850 851 851 851 850 851 851 851 851 851 851 851 850 850 850 849 849
814 815 817 819 820 822 823 825 825 825 826 826 828 827 827 828 828 830 829 830 831 832 833 836 838 839 841 843 843 844 845 844 843 843 843 843 843 844 845 845 846 846 847 848 849 850 850 851 851 850 850 850 850 850 850 850 850 850 850 850 849 849 848 848 849 850 850 850 850 850 850 851 851 851 852 852 852 851 851 851 851 850 850 849 850
814 815 817 819 820 823 824 825 825 825 825 825 828 827 827 827 828 829 829 831 831 832 834 837 840 840 842 843 843 843 844 844 844 844 844 844 844 845 845 846 847 848 848 849 850 850 851 851 851 851 850 850 850 850 850 850 850 850 850 850 849 848 848 849 849 849 850 850 850 850 850 851 851 851 852 852 852 852 851 851 850 850 850 849 850
814 815 817 819 821 824 824 825 825 826 825 825 827 826 827 827 828 829 830 832 833 835 838 839 840 841 842 842 842 843 844 843 843 844 844 845 845 846 846 847 848 849 849 849 850 850 851 851 851 851 850 850 850 850 850 850 850 850 850 849 848 848 849 850 849 850 850 851 851 850 851 851 851 851 852 852 852 852 851 851 851 850 850 850 850
813 815 818 820 822 824 825 826 826 827 826 825 826 827 827 827 828 829 831 834 835 838 839 839 840 842 843 842 842 843 844 844 843 843 845 846 846 847 847 848 849 849 850 850 850 851 851 851 851 851 851 851 850 850 851 850 850 850 850 849 848 849 850 850 850 850 850 851 851 850 851 851 851 851 851 852 852 852 852 851 851 850 850 850 850
812 815 818 820 821 823 825 826 826 827 827 826 827 827 828 828 829 830 831 834 837 839 839 839 840 841 842 842 842 843 845 844 844 844 845 847 847 847 848 848 849 850 850 850 851 851 852 852 852 851 851 851 850 850 851 850 850 850 849 848 849 850 850 850 850 850 851 851 850 850 851 851 851 851 851 852 852 852 852 852 851 851 850 850 850
812 814 817 820 821 822 824 825 827 827 827 826 826 827 828 828 829 830 832 834 836 839 839 839 840 841 841 842 842 844 845 845 846 846 846 847 847 847 848 849 849 850 850 851 851 852 852 852 852 852 851 850 850 850 851 850 850 849 849 848 850 850 850 850 850 850 851 851 850 851 851 851 851 851 851 851 852 852 852 852 851 851 850 850 849
811 814 817 819 821 822 824 825 826 826 827 826 826 827 828 828 829 830 832 833 836 839 839 839 840 840 841 842 842 844 845 845 846 846 846 847 847 848 848 849 850 850 851 851 853 853 853 853 853 852 851 850 850 850 850 849 849 849 848 849 850 849 850 850 850 850 851 851 850 851 851 850 850 850 851 851 851 852 852 852 851 851 850 849 849
811 814 817 819 821 822 823 824 826 826 827 827 826 827 827 828 829 830 831 833 836 838 839 838 839 840 840 842 842 844 844 845 846 846 846 847 847 848 848 850 851 851 851 852 853 853 853 853 853 852 851 850 850 850 849 849 848 848 849 849 850 849 850 850 850 850 850 850 850 850 851 850 850 850 850 850 851 851 851 851 851 851 850 849 848
811 814 816 819 820 821 823 823 825 826 826 827 827 827 827 828 829 830 831 833 835 837 839 838 838 839 840 842 842 844 844 844 846 846 846 847 848 848 849 850 850 851 851 852 853 853 853 853 852 851 850 849 849 849 849 849 848 847 848 849 849 849 850 849 850 850 850 850 850 850 850 850 850 849 849 849 850 850 850 851 850 850 849 849 848
811 813 816 818 819 821 822 823 824 826 826 827 827 828 828 829 829 830 831 832 834 837 838 837 839 840 840 841 842 844 845 845 846 846 846 847 848 848 849 850 850 851 851 852 852 852 853 852 852 851 850 849 848 848 848 848 848 847 847 848 848 849 849 849 850 850 850 850 850 850 850 850 849 849 849 849 849 849 849 850 850 850 849 849 848
811 813 815 816 817 820 822 823 824 825 826 827 827 828 829 829 830 830 831 832 833 835 837 837 839 840 841 841 842 844 844 845 846 846 847 847 848 849 849 850 850 851 851 852 852 852 852 852 851 851 850 849 848 848 847 847 847 846 847 847 848 849 849 849 850 850 850 850 850 850 850 849 849 849 849 848 848 849 849 849 850 850 849 849 848
810 812 814 815 817 819 821 822 824 825 825 826 827 828 829 829 830 830 831 832 833 835 837 837 838 840 840 841 843 844 844 844 845 846 847 848 848 849 849 850 850 851 851 852 852 852 852 851 851 850 850 849 848 848 847 846 846 846 846 846 847 848 848 849 850 850 850 850 850 850 850 849 849 849 848 848 848 849 849 849 849 849 849 849 848
809 811 813 815 816 818 820 822 823 824 825 826 827 827 828 829 829 830 830 831 833 835 836 837 838 839 840 841 842 843 843 844 845 846 847 848 848 849 849 850 850 851 851 852 852 852 851 851 851 850 850 849 848 848 847 846 845 845 846 846 846 847 848 848 848 849 849 850 850 849 849 849 849 849 848 848 848 848 849 849 849 849 849 849 849
808 810 812 815 816 818 820 822 823 824 825 826 826 827 828 828 829 829 830 830 832 833 834 836 838 840 841 842 842 841 842 844 845 846 847 848 848 849 850 850 850 851 851 852 852 852 852 851 851 851 850 849 848 847 846 845 845 845 845 846 846 847 847 846 846 847 848 849 850 850 849 849 849 849 849 849 849 849 849 849 849 849 849 849 849
808 810 812 814 815 818 820 822 823 824 825 826 826 827 828 828 829 829 830 830 831 832 833 835 838 840 842 842 842 841 842 844 845 846 847 848 848 849 850 850 851 851 851 852 851 852 851 851 851 850 850 848 847 847 845 845 845 844 844 845 846 847 846 846 846 847 848 849 849 850 850 850 850 850 850 850 850 850 850 850 849 849 849 849 849
807 810 812 813 815 817 820 822 823 824 825 826 827 827 828 828 829 829 830 831 831 832 833 835 837 839 841 842 842 843 844 845 846 847 847 848 849 849 849 850 851 851 851 852 851 851 851 851 850 849 849 847 847 846 845 844 844 844 843 844 845 846 845 845 846 846 847 848 849 850 850 851 851 851 851 851 851 851 851 851 850 850 849 849 849
808 810 811 812 815 817 819 821 822 824 824 826 827 827 828 828 829 830 831 831 832 833 834 836 838 839 841 842 843 843 844 845 846 847 847 848 848 849 849 850 851 851 851 851 851 850 850 850 849 849 848 847 847 846 845 844 844 845 844 844 845 845 845 845 846 846 847 848 849 851 852 853 853 853 853 853 853 853 852 851 851 850 849 849 848
807 809 811 813 815 817 819 820 822 824 824 826 827 828 829 829 830 830 831 832 832 833 834 836 837 839 840 842 843 844 844 845 846 847 847 847 848 848 849 850 851 851 851 851 851 851 851 851 850 849 848 848 847 845 845 845 844 845 845 845 845 845 845 845 845 845 847 847 849 851 853 855 855 854 855 855 854 854 853 852 852 850 849 849 848
807 809 812 813 815 817 819 820 822 824 824 826 827 828 829 830 830 831 832 832 832 833 834 836 837 839 840 842 843 844 845 846 847 847 847 847 847 848 848 850 851 851 851 852 851 851 851 851 850 850 849 848 846 844 845 844 843 843 844 844 845 845 845 845 845 845 847 848 848 849 851 853 854 854 854 854 853 853 853 852 852 851 850 849 848
808 809 812 813 814 817 818 820 822 823 825 826 828 829 829 830 831 831 832 832 832 833 834 836 837 839 840 842 843 844 845 846 847 848 847 847 848 848 849 850 851 851 851 851 851 851 851 851 850 850 850 849 847 845 845 843 842 842 842 844 845 846 846 846 846 847 847 848 848 848 848 850 851 851 853 852 850 851 851 849 850 850 849 848 848
807 809 811 813 815 817 818 820 822 823 825 827 828 829 830 831 831 832 833 833 833 834 835 836 837 839 840 842 844 845 846 847 848 848 848 848 849 849 849 850 851 851 851 851 851 851 851 851 850 850 850 849 847 846 845 844 842 842 842 843 845 846 846 846 847 847 847 847 847 847 847 849 849 849 851 850 849 849 849 847 847 848 848 847 846
806 809 812 813 815 817 819 821 822 823 825 827 828 829 830 831 831 832 833 833 834 834 836 836 837 839 841 842 844 845 846 847 848 849 849 849 849 849 850 851 851 851 851 851 850 851 852 851 851 850 849 848 847 846 846 845 843 843 844 843 844 846 846 846 846 845 846 845 846 846 845 847 848 848 849 849 848 848 848 848 847 848 848 846 845
806 809 811 813 815 817 819 821 822 824 825 826 827 828 829 830 831 832 833 833 835 835 836 837 837 839 841 843 844 845 846 848 848 849 849 850 850 850 851 851 851 851 852 851 851 851 851 851 851 850 849 848 846 845 845 845 844 843 845 844 843 845 845 846 845 843 844 843 844 845 844 845 845 846 847 847 848 848 848 848 847 848 848 846 845
805 809 810 812 815 816 818 820 822 823 824 825 827 828 829 830 830 831 832 833 835 836 836 837 838 839 842 843 844 846 847 848 849 849 850 850 850 850 851 851 851 852 852 852 852 852 851 851 851 850 849 848 846 845 845 846 845 842 843 843 842 843 844 844 843 842 841 841 841 842 843 843 843 843 845 845 846 847 848 847 847 848 847 845 844
805 807 809 811 814 815 818 820 821 823 824 825 826 827 829 830 830 831 832 833 834 835 836 837 838 840 842 843 845 846 847 848 848 849 849 850 850 851 851 851 851 852 852 852 852 852 852 851 851 850 849 848 846 845 845 846 844 841 842 844 842 843 845 843 841 841 840 840 840 840 840 841 840 841 842 843 844 845 845 846 846 847 845 843 842
804 805 808 810 812 814 817 819 821 822 823 825 826 827 829 830 831 831 832 833 834 835 836 837 838 840 842 843 845 846 847 848 848 849 849 850 850 850 851 851 851 852 852 852 852 852 852 851 850 850 849 849 846 844 845 845 844 843 844 845 841 842 848 844 838 839 839 839 839 838 838 839 837 839 840 840 842 843 842 843 844 844 843 841 841
802 804 806 808 810 813 816 818 820 821 823 824 826 827 828 830 831 832 832 833 835 835 836 837 838 840 841 843 844 845 846 847 848 848 849 849 850 850 851 851 851 852 852 852 851 851 851 851 851 850 849 849 847 846 846 844 844 845 845 845 845 846 848 842 838 840 839 838 839 838 839 840 838 838 839 839 840 840 840 841 843 842 841 841 841
800 802 804 806 809 812 814 817 819 820 822 824 825 827 828 830 830 832 832 833 834 835 836 837 838 840 841 842 844 845 846 847 847 848 849 849 850 850 851 851 851 851 852 851 851 851 851 850 850 850 849 849 849 848 848 845 844 845 844 845 846 846 845 843 844 846 844 841 840 841 842 842 841 840 841 841 840 840 841 841 842 841 840 841 841
798 800 802 804 807 810 813 816 818 819 821 823 825 826 827 829 830 831 832 833 834 835 836 837 838 839 840 841 843 844 845 846 847 848 848 849 850 850 850 851 851 851 851 851 851 850 850 850 850 851 850 850 850 849 848 847 845 843 843 843 843 843 842 843 845 848 850 848 844 844 845 845 844 843 844 844 844 843 842 841 841 840 840 840 840
795 797 800 803 806 809 812 814 816 818 820 822 824 825 826 828 829 830 831 833 834 835 836 837 838 839 840 841 842 844 845 846 847 847 848 849 849 850 850 850 851 851 851 851 851 850 850 850 851 851 851 850 850 849 848 848 846 844 844 844 844 844 844 845 845 846 850 850 847 845 846 848 845 844 845 846 846 844 841 839 839 839 839 839 840
793 796 798 801 805 808 811 813 815 817 819 821 823 824 826 827 828 830 831 832 833 834 836 837 838 839 840 841 842 843 844 845 846 846 847 848 849 849 850 850 850 851 851 851 850 851 850 851 851 851 851 850 850 850 849 848 847 847 846 844 845 845 845 845 845 848 850 850 849 845 846 847 844 844 846 845 845 844 839 838 839 839 839 839 838
790 794 796 799 803 807 810 812 814 816 818 820 822 823 825 826 827 829 830 831 832 834 836 837 838 839 840 841 842 842 843 844 845 846 846 847 848 849 849 850 850 850 850 850 850 850 851 851 851 850 850 850 850 850 849 849 848 848 846 845 846 846 845 844 844 849 852 850 848 845 845 846 843 843 844 843 843 842 839 838 839 839 837 836 837
788 792 795 799 802 805 808 811 813 815 817 818 821 822 824 825 827 828 829 831 832 833 835 836 837 839 839 840 841 842 842 843 844 845 845 846 847 848 848 849 849 849 850 850 850 850 850 850 850 850 850 850 850 850 849 849 848 848 846 845 845 844 843 843 842 845 847 844 844 846 845 845 844 843 843 841 840 840 838 837 838 839 837 836 837